Sturgeon Bay, WI

1:48 AM CST on February 21, 2018 (GMT -0600)
Door County Cherryland

Weather History for KSUE - February, 2013

Change the Weather History Date:

Thursday, February 28, 2013

  Actual Average Record
Temperature  
Mean Temperature 26 °F -  
Max Temperature 30 °F 33 °F 48 °F (1983)
Min Temperature 23 °F 16 °F -11 °F (2014)
Degree Days  
Heating Degree Days 38    
Moisture  
Dew Point 22 °F    
Average Humidity 81    
Maximum Humidity 93    
Minimum Humidity 69    
Precipitation  
Precipitation 0.00 in - - ()
Sea Level Pressure  
Sea Level Pressure 29.97 in    
Wind  
Wind Speed 19 mph (North)    
Max Wind Speed 23 mph    
Max Gust Speed 31 mph    
Visibility 8 miles    
Events      
Averages and records for this station are not official NWS values.
T = Trace of Precipitation, MM = Missing Value Source: NWS Daily Summary

Daily Weather History Graph

Daily Weather History Graph

Search for Another Location

Airport or City:

Trip Planner

Search our weather history database for the weather conditions in past years. The results will help you decide how hot, cold, wet, or windy it might be!

Date:

Astronomy

Feb. 28, 2013 Rise Set
Actual Time 6:28 AM CST 5:36 PM CST
Civil Twilight 5:59 AM CST 6:05 PM CST
Nautical Twilight 5:25 AM CST 6:39 PM CST
Astronomical Twilight 4:51 AM CST 7:13 PM CST
Moon 9:14 PM CST (2/28) 7:28 AM CST (2/28)
Length of Visible Light 12h 06m
Length of Day
11h 07m
Waning Gibbous, 90% of the Moon is Illuminated
Feb 28
Waning Gibbous
Mar 4
Last Quarter
Mar 11
New
Mar 19
First Quarter
Mar 27
Full

Hourly Weather History & Observations

Time (CST) Temp. Windchill Dew Point Humidity Pressure Visibility Wind Dir Wind Speed Gust Speed Precip Events Conditions
12:15 AM 30.2 °F 17.1 °F 28.4 °F 93% 29.77 in 5.0 mi North 21.9 mph 27.6 mph N/A   Overcast
1:15 AM 30.2 °F 17.4 °F 28.4 °F 93% 29.78 in 2.5 mi North 20.7 mph 29.9 mph N/A   Overcast
1:35 AM 30.2 °F 17.8 °F 28.4 °F 93% 29.79 in 2.5 mi North 19.6 mph 27.6 mph N/A   Overcast
1:55 AM 30.2 °F 17.1 °F 28.4 °F 93% 29.79 in 2.5 mi North 21.9 mph 28.8 mph N/A   Overcast
2:15 AM 30.2 °F 17.4 °F 28.4 °F 93% 29.79 in 3.0 mi North 20.7 mph - N/A   Overcast
2:35 AM 30.2 °F 17.8 °F 28.4 °F 93% 29.79 in 2.5 mi North 19.6 mph 23.0 mph N/A   Overcast
2:55 AM 30.2 °F 18.5 °F 28.4 °F 93% 29.80 in 4.0 mi North 17.3 mph 24.2 mph N/A   Overcast
3:15 AM 30.2 °F 18.1 °F 28.4 °F 93% 29.80 in 5.0 mi North 18.4 mph 21.9 mph N/A   Overcast
3:55 AM 30.2 °F 18.5 °F 26.6 °F 86% 29.81 in 10.0 mi North 17.3 mph 20.7 mph N/A   Overcast
4:35 AM 30.2 °F 18.1 °F 26.6 °F 86% 29.82 in 10.0 mi North 18.4 mph - N/A   Overcast
4:55 AM 30.2 °F 18.1 °F 26.6 °F 86% 29.83 in 10.0 mi North 18.4 mph 24.2 mph N/A   Overcast
5:15 AM 30.2 °F 17.4 °F 26.6 °F 86% 29.84 in 10.0 mi North 20.7 mph - N/A   Overcast
5:35 AM 30.2 °F 18.5 °F 26.6 °F 86% 29.85 in 10.0 mi North 17.3 mph 27.6 mph N/A   Overcast
5:55 AM 30.2 °F 18.9 °F 26.6 °F 86% 29.86 in 10.0 mi North 16.1 mph - N/A   Overcast
6:15 AM 30.2 °F 19.3 °F 26.6 °F 86% 29.87 in 10.0 mi North 15.0 mph 19.6 mph N/A   Overcast
6:35 AM 30.2 °F 19.3 °F 26.6 °F 86% 29.87 in 3.0 mi North 15.0 mph - N/A   Overcast
6:55 AM 28.4 °F 16.6 °F 26.6 °F 93% 29.89 in 3.0 mi North 16.1 mph - N/A   Overcast
7:15 AM 28.4 °F 15.4 °F 24.8 °F 86% 29.89 in 4.0 mi North 19.6 mph 26.5 mph N/A   Overcast
7:35 AM 28.4 °F 15.4 °F 24.8 °F 86% 29.90 in 6.0 mi North 19.6 mph 26.5 mph N/A   Overcast
7:55 AM 28.4 °F 15.8 °F 24.8 °F 86% 29.91 in 2.0 mi North 18.4 mph 26.5 mph N/A   Overcast
8:15 AM 28.4 °F 16.2 °F 26.6 °F 93% 29.92 in 2.5 mi North 17.3 mph 24.2 mph N/A   Overcast
8:35 AM 28.4 °F 16.2 °F 24.8 °F 86% 29.92 in 5.0 mi North 17.3 mph 24.2 mph N/A   Overcast
8:55 AM 28.4 °F 15.4 °F 24.8 °F 86% 29.92 in 8.0 mi North 19.6 mph - N/A   Overcast
9:15 AM 28.4 °F 16.6 °F 24.8 °F 86% 29.93 in 10.0 mi North 16.1 mph - N/A   Overcast
9:35 AM 28.4 °F 15.4 °F 24.8 °F 86% 29.93 in 10.0 mi North 19.6 mph - N/A   Overcast
9:55 AM 28.4 °F 17.0 °F 24.8 °F 86% 29.94 in 10.0 mi North 15.0 mph 23.0 mph N/A   Overcast
10:15 AM 28.4 °F 16.2 °F 24.8 °F 86% 29.95 in 5.0 mi North 17.3 mph - N/A   Overcast
10:35 AM 28.4 °F 14.7 °F 21.2 °F 74% 29.95 in 2.5 mi North 21.9 mph 31.1 mph N/A   Overcast
10:55 AM 26.6 °F 13.1 °F 21.2 °F 80% 29.97 in 2.5 mi North 19.6 mph 26.5 mph N/A   Overcast
11:15 AM 26.6 °F 12.7 °F 21.2 °F 80% 29.97 in 5.0 mi North 20.7 mph 25.3 mph N/A   Overcast
11:35 AM 26.6 °F 12.7 °F 21.2 °F 80% 29.97 in 5.0 mi North 20.7 mph 27.6 mph N/A   Overcast
11:55 AM 26.6 °F 13.8 °F 21.2 °F 80% 29.98 in 10.0 mi North 17.3 mph 26.5 mph N/A   Overcast
12:15 PM 26.6 °F 13.4 °F 21.2 °F 80% 29.98 in 10.0 mi North 18.4 mph 23.0 mph N/A   Overcast
12:35 PM 26.6 °F 12.4 °F 21.2 °F 80% 29.98 in 10.0 mi North 21.9 mph - N/A   Overcast
12:55 PM 26.6 °F 12.7 °F 21.2 °F 80% 29.98 in 10.0 mi North 20.7 mph - N/A   Overcast
1:15 PM 26.6 °F 12.0 °F 21.2 °F 80% 29.99 in 10.0 mi North 23.0 mph 26.5 mph N/A   Overcast
1:35 PM 26.6 °F 12.4 °F 19.4 °F 74% 29.99 in 10.0 mi North 21.9 mph 26.5 mph N/A   Overcast
2:15 PM 26.6 °F 12.7 °F 19.4 °F 74% 30.00 in 10.0 mi North 20.7 mph 25.3 mph N/A   Overcast
2:35 PM 26.6 °F 12.7 °F 19.4 °F 74% 30.01 in 9.0 mi North 20.7 mph 26.5 mph N/A   Overcast
2:55 PM 26.6 °F 13.4 °F 19.4 °F 74% 30.01 in 9.0 mi NNE 18.4 mph 25.3 mph N/A   Overcast
3:15 PM 26.6 °F 12.7 °F 19.4 °F 74% 30.02 in 10.0 mi North 20.7 mph - N/A   Overcast
3:35 PM 26.6 °F 12.7 °F 19.4 °F 74% 30.02 in 10.0 mi North 20.7 mph 27.6 mph N/A   Overcast
3:55 PM 26.6 °F 12.0 °F 19.4 °F 74% 30.02 in 10.0 mi North 23.0 mph 28.8 mph N/A   Overcast
4:15 PM 26.6 °F 13.8 °F 17.6 °F 69% 30.03 in 10.0 mi North 17.3 mph 31.1 mph N/A   Overcast
4:35 PM 26.6 °F 12.7 °F 17.6 °F 69% 30.04 in 4.0 mi North 20.7 mph 28.8 mph N/A   Overcast
4:55 PM 24.8 °F 11.5 °F 19.4 °F 80% 30.05 in 3.0 mi North 17.3 mph - N/A   Overcast
5:15 PM 24.8 °F 11.1 °F 19.4 °F 80% 30.06 in 5.0 mi North 18.4 mph - N/A   Overcast
5:35 PM 24.8 °F 10.3 °F 19.4 °F 80% 30.07 in 4.0 mi North 20.7 mph 27.6 mph N/A   Overcast
6:15 PM 24.8 °F 11.1 °F 17.6 °F 74% 30.08 in 6.0 mi North 18.4 mph - N/A   Overcast
6:35 PM 24.8 °F 10.7 °F 17.6 °F 74% 30.09 in 10.0 mi North 19.6 mph 25.3 mph N/A   Overcast
6:55 PM 24.8 °F 11.9 °F 17.6 °F 74% 30.09 in 10.0 mi North 16.1 mph - N/A   Overcast
7:15 PM 24.8 °F 11.5 °F 17.6 °F 74% 30.09 in 10.0 mi North 17.3 mph 25.3 mph N/A   Overcast
7:35 PM 24.8 °F 11.9 °F 19.4 °F 80% 30.10 in 10.0 mi North 16.1 mph - N/A   Overcast
7:55 PM 24.8 °F 11.9 °F 17.6 °F 74% 30.10 in 10.0 mi North 16.1 mph 24.2 mph N/A   Overcast
8:15 PM 24.8 °F 11.9 °F 19.4 °F 80% 30.10 in 10.0 mi North 16.1 mph - N/A   Overcast
8:35 PM 24.8 °F 11.5 °F 19.4 °F 80% 30.10 in 10.0 mi North 17.3 mph - N/A   Overcast
8:55 PM 24.8 °F 10.7 °F 17.6 °F 74% 30.11 in 10.0 mi North 19.6 mph - N/A   Overcast
9:15 PM 24.8 °F 11.5 °F 17.6 °F 74% 30.11 in 10.0 mi NNE 17.3 mph 26.5 mph N/A   Overcast
9:35 PM 24.8 °F 11.5 °F 19.4 °F 80% 30.11 in 10.0 mi NNE 17.3 mph 21.9 mph N/A   Overcast
9:55 PM 24.8 °F 10.7 °F 17.6 °F 74% 30.11 in 10.0 mi NNE 19.6 mph 24.2 mph N/A   Overcast
10:15 PM 24.8 °F 11.9 °F 15.8 °F 69% 30.12 in 10.0 mi NNE 16.1 mph - N/A   Overcast
10:35 PM 24.8 °F 12.9 °F 15.8 °F 69% 30.12 in 10.0 mi NNE 13.8 mph 21.9 mph N/A   Overcast
10:55 PM 24.8 °F 14.0 °F 17.6 °F 74% 30.12 in 10.0 mi North 11.5 mph - N/A   Overcast
11:15 PM 23.0 °F 11.7 °F 17.6 °F 80% 30.12 in 10.0 mi North 11.5 mph - N/A   Overcast
11:35 PM 24.8 °F 12.9 °F 17.6 °F 74% 30.12 in 10.0 mi NNE 13.8 mph 23.0 mph N/A   Overcast
11:55 PM 24.8 °F 12.9 °F 15.8 °F 69% 30.12 in 10.0 mi NNE 13.8 mph 21.9 mph N/A   Overcast